Ithaca, NY
on Saturday, December 9, 2017

Saturday
       
Previous Day Next Day
Daily Summary
 ActualAverageRecord
Temperature
Mean Temperature °F °C °F °C  
Max Temperature 30°F -1°C 38°F 3°C 64°F 17°C (1966)
Min Temperature 16°F -9°C 23°F -5°C -1°F -18°C (1989)
Degree Days
Heating Degree Days 42    
Moisture
Dew Point 15°F -9°C   
Average Humidity 71    
Maximum Humidity 89    
Minimum Humidity 56    
Precipitation
Precipitation 0.00 in / 0.00 cm in / cm in / cm ()
Wind
Wind Speed 4 mph / 6 km/h   
Max Wind Speed 8 mph / 13 km/h   
Max Gust Speed mph / km/h   
Visibility 10 miles / 16 kilometers   
Events     
Averages and records for this station are not official NWS values.
Key: T is trace of precipitation, MM is missing value
Source: NWS Daily Summary
Seasonal Weather Averages
Time(EST)TemperatureDew PointHumidity Pressure Visibility Wind DirectionWind SpeedGust SpeedPrecipitationEvents Conditions
12:56 AM 23.0°F -5.0°C 12.0°F -11.1°C 63% 29.95 in / 1014.2 hPa 10.0 miles / 16.1 kilometers South 4.6 mph / 7.4 km/h - N/A   Clear
1:56 AM 23.0°F -5.0°C 12.9°F -10.6°C 65% 29.95 in / 1014.2 hPa 10.0 miles / 16.1 kilometers South 5.8 mph / 9.3 km/h - N/A   Clear
2:56 AM 23.0°F -5.0°C 14.0°F -10.0°C 68% 29.95 in / 1014.2 hPa 10.0 miles / 16.1 kilometers SSE 4.6 mph / 7.4 km/h - N/A   Clear
3:56 AM 23.0°F -5.0°C 14.0°F -10.0°C 68% 29.94 in / 1013.7 hPa 10.0 miles / 16.1 kilometers SE 4.6 mph / 7.4 km/h - N/A   Clear
4:56 AM 19.9°F -6.7°C 12.9°F -10.6°C 74% 29.96 in / 1014.3 hPa 10.0 miles / 16.1 kilometers SSE 4.6 mph / 7.4 km/h - N/A   Clear
5:56 AM 23.0°F -5.0°C 14.0°F -10.0°C 68% 29.94 in / 1013.8 hPa 10.0 miles / 16.1 kilometers SE 3.5 mph / 5.6 km/h - N/A   Clear
6:35 AM 21.2°F -6.0°C 14.0°F -10.0°C 74% 29.90 in / 1012.4 hPa 10.0 miles / 16.1 kilometers Calm Calm - N/A   Clear
6:56 AM 21.9°F -5.6°C 14.0°F -10.0°C 72% 29.95 in / 1014.1 hPa 10.0 miles / 16.1 kilometers SE 3.5 mph / 5.6 km/h - N/A   Clear
7:56 AM 19.9°F -6.7°C 15.1°F -9.4°C 81% 29.96 in / 1014.3 hPa 10.0 miles / 16.1 kilometers ESE 4.6 mph / 7.4 km/h - N/A   Clear
8:56 AM 24.1°F -4.4°C 18.0°F -7.8°C 77% 29.94 in / 1013.6 hPa 10.0 miles / 16.1 kilometers SE 4.6 mph / 7.4 km/h - N/A   Clear
9:56 AM 27.0°F -2.8°C 17.1°F -8.3°C 66% 29.89 in / 1012.0 hPa 10.0 miles / 16.1 kilometers SSE 6.9 mph / 11.1 km/h - N/A   Clear
10:56 AM 27.0°F -2.8°C 17.1°F -8.3°C 66% 29.89 in / 1012.1 hPa 10.0 miles / 16.1 kilometers SSE 5.8 mph / 9.3 km/h - N/A   Clear
11:56 AM 28.9°F -1.7°C 17.1°F -8.3°C 61% 29.86 in / 1010.9 hPa 10.0 miles / 16.1 kilometers SSE 5.8 mph / 9.3 km/h - N/A   Clear
12:56 PM 30.0°F -1.1°C 16.0°F -8.9°C 56% 29.83 in / 1009.9 hPa 10.0 miles / 16.1 kilometers South 6.9 mph / 11.1 km/h - N/A   Clear
1:56 PM 30.0°F -1.1°C 16.0°F -8.9°C 56% 29.80 in / 1008.9 hPa 10.0 miles / 16.1 kilometers South 8.1 mph / 13.0 km/h - N/A   Clear
2:56 PM 30.0°F -1.1°C 17.1°F -8.3°C 59% 29.79 in / 1008.7 hPa 10.0 miles / 16.1 kilometers SSE 4.6 mph / 7.4 km/h - N/A   Clear
3:56 PM 28.9°F -1.7°C 17.1°F -8.3°C 61% 29.78 in / 1008.5 hPa 10.0 miles / 16.1 kilometers SE 8.1 mph / 13.0 km/h - N/A   Clear
4:56 PM 27.0°F -2.8°C 15.1°F -9.4°C 61% 29.77 in / 1008.0 hPa 10.0 miles / 16.1 kilometers SE 3.5 mph / 5.6 km/h - N/A   Clear
5:56 PM 25.0°F -3.9°C 15.1°F -9.4°C 66% 29.78 in / 1008.4 hPa 10.0 miles / 16.1 kilometers Calm Calm - N/A   Clear
6:56 PM 23.0°F -5.0°C 16.0°F -8.9°C 74% 29.78 in / 1008.4 hPa 10.0 miles / 16.1 kilometers Calm Calm - N/A   Clear
7:56 PM 19.0°F -7.2°C 14.0°F -10.0°C 81% 29.77 in / 1007.9 hPa 10.0 miles / 16.1 kilometers Calm Calm - N/A   Clear
8:56 PM 16.0°F -8.9°C 12.0°F -11.1°C 84% 29.77 in / 1008.1 hPa 10.0 miles / 16.1 kilometers Calm Calm - N/A   Clear
9:56 PM 17.1°F -8.3°C 14.0°F -10.0°C 88% 29.78 in / 1008.4 hPa 10.0 miles / 16.1 kilometers Calm Calm - N/A   Clear
10:56 PM 18.0°F -7.8°C 15.1°F -9.4°C 88% 29.77 in / 1008.1 hPa 10.0 miles / 16.1 kilometers Calm Calm - N/A   Mostly Cloudy
11:56 PM 19.9°F -6.7°C 17.1°F -8.3°C 89% 29.77 in / 1008.0 hPa 10.0 miles / 16.1 kilometers Calm Calm - N/A   Mostly Cloudy